OPS 9327

operational
NORAD ID: 2654 Int'l Des: 1967-003 Owner: AFSSD Country: US
MEOCIRCULAR

OPS 9327について

説明を読み込み中...

リアルタイム位置

3D地球を読み込み中...

次回通過

高度履歴

Altitude vs Time

uPlot chart will show altitude changes over time

軌道要素

1 02654U 67003G 25340.26304201 -.00000118 00000-0 00000-0 0 9996
2 02654 7.7853 48.8901 0055333 45.3351 329.7935 1.07511766137406
Epoch: Dec 6, 2025 • Age: 26 hours

現在のステータス

高度 33692.2 km
速度 3.16 km/s
衛星直下点 7.74°N, 76.9°W
タイプ other

大規模コンステレーション

Loading constellations...